Location: Belmont
(13.0833°N, 59.6000°W)
Time: 06:34:29
(UTC+00:00)

Cosmos 2251 Rocket - Pass Details

Date: 17 September 2019
Orbit: 764 x 792 km, 74.0° (Epoch: 17 October)

Event Time Altitude Azimuth Distance (km) Brightness Sun altitude
Rises 23:04:51 0° 360° (N) 3,280 6.9 -17.0°
Reaches altitude 10° 23:07:25 10° 8° (N) 2,349 6.0 -17.6°
Maximum altitude 23:12:21 38° 75° (ENE) 1,192 4.0 -18.8°
Enters shadow 23:13:11 35° 97° (E) 1,240 4.0 -19.0°
